DELTA 1 DEB, 35535

Orbit data source: Space-Track

DELTA 1 DEB, 35535 is space debris in SSO originally from a launch on Thu, 12 Jun 1975 UTC launched from the Air Force Western Test Range (AFWTR). Debris objects in space refer to the collection of defunct objects orbiting the Earth. Examples of debris include non-operational satellites, rocket bodies, and fragments generated from explosions, collisions, or faulty payload assembly.

Loading next visibility...
Identifier
35535, 1975-052LH
Orbit
SSO
Country
Flag of USUS
Related business
Manufacturer
Unknown
Mission
Spacecraft
Bus & Motor
Unknown
Mass
Unknown
Launch date (UTC)
1975-06-12 (51 years ago)
Launch vehicle
Unknown
Launch site
Air Force Western Test Range (AFWTR)
Object type
Payload
Rocket body
Debris
Shape & HBR
Unknown shape, 0.1 m
Radar Cross Section
Small (<0.1 m²)

Expand to show TLE details & history
Last TLE update: 3 days ago

TLE from 3 days ago
0 DELTA 1 DEB
1 35535U 75052LH  26124.24525193  .00000018  00000-0  54654-4 0  9993
2 35535  98.8272 115.1227 0095247  31.9449 328.7432 13.79339502159821
Epoch: 2026-05-04T05:53Z
TLE epoch observation values (Epoch: 2026-05-04T05:53:09.766Z)
Latitude
0.00001°
Longitude
164.69479°
Altitude
909.456 km
Speed
7.427 km/s
True Right ascension
07h 40m 29s
True Declination
0° 00' 00"
Sunlit
Object was in daylight at epoch
Visualization orbit readout
Latitude
Unknown
Longitude
Unknown
Altitude
Unknown
Speed
Unknown
Apparent Right ascension
Unknown
Apparent Declination
Unknown
Sunlit
N/A
Visualization observer readout
Local Sidereal Time
18:15:25
Azimuth
Unknown
Elevation
Unknown
Doppler factor
Unknown
Orbital elements
Apogee altitude
1,033.375 km
Perigee altitude
893.522 km
Semi-major axis
7,341.586 km
Eccentricity
0.00952
Inclination
98.8272°
RAAN
115.1227°
Arg. of periapsis
31.9449°
True anomaly
328.17106°
Mean anomaly
328.7432°
Eccentric anomaly
328.45772°
Mean motion
3.45031 °/min
Orbital period
104.34 mins
BSTAR
0.000054654
Loading maneuver chart data...
Computing Atmospheric mass density...
Loading historical data...
Loading historical data...
Loading historical data...
Loading historical data...
Loading historical data...
Loading historical data...
Loading historical data...

Documentation

Showing up to 5 results
|